Location: La Brionne
(46.1728°N, 1.7849°E)
Time: 18:00:51
(UTC+00:00)

USA 215 - Pass Details

Date: 25 October 2021
Orbit: 1099 x 1109 km, 123.0° (Epoch: 20 November)

Event Time Altitude Azimuth Distance (km) Brightness Sun altitude
Exits shadow 21:58:51 16° 314° (NW) 2,557 5.6 -50.4°
Drops below altitude 10° 22:00:02 10° 309° (NW) 2,964 6.0 -50.5°
Sets 22:02:39 0° 303° (WNW) 3,925 6.7 -50.8°
